Regional Weather Roundup
Issued by NWS

Home | Current Version | Previous Version | Text Only | Print | Product List | Glossary On
Versions: 1 2 3 4 5 6 7 8 9 10 11 12 13 14 15 16 17 18 19 20 21 22 23 24 25 26 27 28 29 30 31 32 33 34 35 36 37 38 39 40 41 42 43 44 45 46 47 48 49 50
000
ASUS43 KDMX 270608
RWRIA

WEATHER ROUNDUP FOR IOWA
NATIONAL WEATHER SERVICE DES MOINES IA
100 AM CDT SAT AUG 27 2016

NOTE: "FAIR" INDICATES FEW OR NO CLOUDS BELOW 12,000 FEET WITH NO
SIGNIFICANT WEATHER AND/OR OBSTRUCTIONS TO VISIBILITY.

* - THESE STATIONS ARE NOT NWS STATIONS...THUS NOT UNDER NWS
QUALITY CONTROL.  THEY ALSO DO NOT REPORT WEATHER SUCH
AS PRECIPITATION OR FOG.

IAZ001>003-012>014-020>022-031>034-043>046-270700-
   NORTHWEST IOWA

CITY           SKY/WX    TMP DP  RH WIND       PRES   REMARKS
CARROLL *      CLOUDY    63  61  94 E5        30.06S
CHEROKEE *     CLOUDY    64  61  91 CALM      30.06F
DENISON *      CLOUDY    63  61  94 E7        30.03F FOG
LE MARS *      CLOUDY    64  61  88 E6        30.06F
ORANGE CITY *  CLOUDY    64  61  88 SE7       30.06F
SHELDON *      CLOUDY    63  61  94 E6        30.05S
SIOUX CITY     LGT RAIN  66  62  87 E3        30.04F
6HR MIN TEMP:  64; 6HR MAX TEMP:  72; 6HR PCP: TRACE;

SPENCER        CLOUDY    63  58  83 SE9       30.07F
6HR MIN TEMP:  63; 6HR MAX TEMP:  67;

STORM LAKE *   CLOUDY    61  59  94 E7        30.07F
$$

IAZ055>058-069>071-079>083-090>094-270700-
   SOUTHWEST IOWA

CITY           SKY/WX    TMP DP  RH WIND       PRES   REMARKS
ATLANTIC *     CLOUDY    66  64  94 NE7       30.03F
AUDUBON *      CLOUDY    63  61  94 CALM      30.06S
CLARINDA *       N/A     68  68 100 MISG      30.04F
COUNCIL BLFS * CLOUDY    64  64 100 E7        30.02F
CRESTON *      CLOUDY    66  66 100 NE6       30.04S
HARLAN  *      CLOUDY    64  64 100 VRB3      30.07F
LAMONI         LGT RAIN  69  68  96 N5        30.00S
6HR MIN TEMP:  68; 6HR MAX TEMP:  72; 6HR PCP:  0.15;

RED OAK *      PTCLDY    64  64 100 NE3       30.02F
SHENANDOAH *   MOCLDY    64 N/A N/A N3        30.02F FOG
$$

IAZ047>049-059>061-072>074-084-270700-
   CENTRAL IOWA

CITY           SKY/WX    TMP DP  RH WIND       PRES   REMARKS
AMES           CLOUDY    62  62 100 E5        30.05F
6HR MIN TEMP:  61; 6HR MAX TEMP:  65; 6HR PCP:  0.23;

ANKENY *         N/A    N/A N/A N/A MISG        N/A
BOONE *        MOCLDY    61  61 100 E9        30.04F
CHARITON *       N/A     68  66  94 MISG      30.01F
DES MOINES     CLOUDY    65  62  90 E10       30.02F
6HR MIN TEMP:  65; 6HR MAX TEMP:  70; 6HR PCP:  0.04;

GRINNELL*      CLOUDY    63  61  94 NE13      30.06F
KNOXVILLE *    CLOUDY    66  64  94 E9        30.01F
MARSHALLTOWN   CLOUDY    61  60  97 NE13      30.05F
6HR MIN TEMP:  60; 6HR MAX TEMP:  66; 6HR PCP:  0.48;

NEWTON *       CLOUDY    63  63 100 NE9       30.05S
PELLA *        LGT RAIN  65  64  96 NE5       30.04F
PERRY *          N/A     62  62  99 E8        30.04F
$$

IAZ004>006-015-016-023>025-035-036-270700-
   NORTH CENTRAL IOWA

CITY           SKY/WX    TMP DP  RH WIND       PRES   REMARKS
ALGONA *       CLOUDY    63  59  88 SE6       30.08F
FORT DODGE *   CLOUDY    61  57  88 E8        30.07F
MASON CITY     MOCLDY    61  59  93 N3        30.12F
6HR MIN TEMP:  61; 6HR MAX TEMP:  66; 6HR PCP:  0.01;

FOREST CITY *    N/A    N/A N/A N/A MISG        N/A
WEBSTER CITY * MOCLDY    61  59  94 E10       30.05F
IOWA FALLS *   MOCLDY    60  58  93 E7        30.09F
$$

IAZ007>011-017>019-026>030-037>042-050>054-066-270700-
   NORTHEAST IOWA

CITY           SKY/WX    TMP DP  RH WIND       PRES   REMARKS
CEDAR RAPIDS   LGT RAIN  67  64  90 NE10      30.06F
6HR MIN TEMP:  67; 6HR MAX TEMP:  72; 6HR PCP:  0.01;

CHARLES CITY * MOCLDY    61  61 100 E7        30.11F
CLINTON *      MOCLDY    67  66  97 E6        30.07F
DECORAH *      DRIZZLE   61  61 100 CALM      30.13S
DUBUQUE        HVY RAIN  64  63  96 NE8       30.10F FOG
6HR MIN TEMP:  64; 6HR MAX TEMP:  68; 6HR PCP:  0.02;

MONTICELLO *   HVY RAIN  64  63  94 N5        30.08F
OELWEIN *      DRIZZLE   61  59  94 NE9       30.11F
WATERLOO       LGT RAIN  60  58  92 E6        30.08F
6HR MIN TEMP:  59; 6HR MAX TEMP:  65; 6HR PCP:  0.29;

$$

IAZ064-065-067-068-078-270700-
   EAST CENTRAL IOWA

CITY           SKY/WX    TMP DP  RH WIND       PRES   REMARKS
DAVENPORT        N/A     67  66  97 E3        30.06F
6HR MIN TEMP:  67; 6HR MAX TEMP:  73; 6HR PCP:  0.04;

IOWA CITY      LGT RAIN  69  64  84 NE7       30.06F
6HR MIN TEMP:  69; 6HR MAX TEMP:  74; 6HR PCP:  0.01;

MT. PLEASANT * CLOUDY    72  72 100 E6        30.03F
MUSCATINE *    CLOUDY    72  66  83 E6        30.05F
QUAD CITIES      N/A     68  66  93 E6        30.04F
6HR MIN TEMP:  68; 6HR MAX TEMP:  76; 6HR PCP:  0.36;

$$

IAZ062-063-075>077-085>089-095>099-270700-
   SOUTHEAST IOWA

CITY           SKY/WX    TMP DP  RH WIND       PRES   REMARKS
BURLINGTON     CLOUDY    71  71 100 E5        30.04F
6HR MIN TEMP:  71; 6HR MAX TEMP:  75; 6HR PCP:  0.06;

FAIRFIELD *    CLOUDY    70  66  88 E6        30.02F
FORT MADISON * LGT RAIN  72  70  94 SE5       30.03F
KEOKUK *       CLOUDY    70  68  94 CALM      30.02F
OSKALOOSA *    LGT RAIN  66  65  96 NE8       30.04S
CENTERVILLE *  LGT RAIN  66  66 100 CALM      30.04S
OTTUMWA        LGT RAIN  68  65  90 NE14      30.02F
6HR MIN TEMP:  68; 6HR MAX TEMP:  74; 6HR PCP:  0.31;

$$

ABBREVIATIONS USED IN REMARKS
   TC - TEMPERATURES IN CELSIUS
  WCI - WIND CHILL INDEX
   HX - HEAT INDEX
  VSB - VISIBILITY
$$





USA.gov is the U.S. government's official web portal to all federal, state and local government web resources and services.